When you browse on this site, cookies collect data to enhance your experience and personalize the content and advertising you see.
Visit our Privacy Policy to learn more. By continuing to use the site, you agree to this use of cookies and data.
  • In United Kingdom
  • List of Countries
  • For 7 days
  • Water Temperature
  • Satellite Maps
  • Weather Map
  • Weather Widgets
  • user-avatar
    Login

    Hourly Weather Paro

    Today, 22 January, Tuesday

    Time Temperature Precipitation Wind Pressure Humidity
    00:00 +3°C° 0 mm 1 mps 559 mmHg 85%
    01:00 +3°C° 0 mm 1 mps 559 mmHg 83%
    02:00 +2°C° 0 mm 1 mps 559 mmHg 82%
    03:00 +2°C° 0 mm 1 mps 558 mmHg 80%
    04:00 +2°C° 0 mm 1 mps 559 mmHg 76%
    05:00 +1°C° 0 mm 2 mps 559 mmHg 72%
    06:00 -1°C° 0 mm 2 mps 558 mmHg 64%
    07:00 +3°C° 0 mm 2 mps 560 mmHg 53%
    08:00 +7°C° 0 mm 1 mps 562 mmHg 42%
    09:00 +10°C° 0 mm 1 mps 563 mmHg 31%
    10:00 +11°C° 0 mm 1 mps 563 mmHg 32%
    11:00 +12°C° 0 mm 2 mps 564 mmHg 33%
    12:00 +12°C° 0 mm 3 mps 564 mmHg 34%
    13:00 +11°C° 0.1 mm 3 mps 563 mmHg 41%
    14:00 +11°C° 0.1 mm 3 mps 562 mmHg 47%
    15:00 +10°C° 0.1 mm 3 mps 562 mmHg 54%
    16:00 +8°C° 0.3 mm 2 mps 561 mmHg 65%
    17:00 +7°C° 0.3 mm 1 mps 560 mmHg 76%
    18:00 +5°C° 0.3 mm 1 mps 559 mmHg 88%
    19:00 +4°C° 0 mm 1 mps 559 mmHg 88%
    20:00 +4°C° 0 mm 1 mps 559 mmHg 88%
    21:00 +3°C° 0 mm 1 mps 559 mmHg 88%
    22:00 +3°C° 0 mm 1 mps 559 mmHg 84%
    23:00 +3°C° 0 mm 1 mps 559 mmHg 81%

    Tomorrow, 23 January, Wednesday

    Time Temperature Precipitation Wind Pressure Humidity
    00:00 +2°C° 0 mm 1 mps 559 mmHg 77%
    01:00 +2°C° 0 mm 1 mps 559 mmHg 74%
    02:00 +2°C° 0 mm 1 mps 559 mmHg 72%
    03:00 +2°C° 0 mm 1 mps 559 mmHg 69%
    04:00 +3°C° 0 mm 1 mps 559 mmHg 69%
    05:00 +3°C° 0 mm 1 mps 559 mmHg 68%
    06:00 +3°C° 0 mm 1 mps 559 mmHg 67%
    07:00 +4°C° 0.1 mm 1 mps 560 mmHg 63%
    08:00 +6°C° 0.1 mm 1 mps 561 mmHg 59%
    09:00 +7°C° 0.1 mm 1 mps 561 mmHg 56%
    10:00 +7°C° 0.3 mm 1 mps 561 mmHg 57%
    11:00 +8°C° 0.3 mm 1 mps 561 mmHg 59%
    12:00 +7°C° 0.3 mm 2 mps 561 mmHg 61%
    13:00 +7°C° 0.5 mm 2 mps 560 mmHg 66%
    14:00 +6°C° 0.5 mm 2 mps 560 mmHg 71%
    15:00 +6°C° 0.5 mm 2 mps 559 mmHg 76%
    16:00 +5°C° 0.3 mm 2 mps 559 mmHg 80%
    17:00 +4°C° 0.3 mm 2 mps 558 mmHg 85%
    18:00 +5°C° 0.3 mm 1 mps 558 mmHg 89%
    19:00 +4°C° 0.3 mm 1 mps 559 mmHg 88%
    20:00 +4°C° 0.3 mm 1 mps 559 mmHg 87%
    21:00 +4°C° 0.3 mm 1 mps 560 mmHg 86%
    22:00 +4°C° 0.2 mm 1 mps 560 mmHg 87%
    23:00 +4°C° 0.2 mm 1 mps 559 mmHg 88%

    Day after tomorrow, 24 January, Thursday

    Time Temperature Precipitation Wind Pressure Humidity
    00:00 +3°C° 0.2 mm 1 mps 559 mmHg 88%
    01:00 +3°C° 0.1 mm 1 mps 559 mmHg 88%
    02:00 +2°C° 0.1 mm 1 mps 559 mmHg 87%
    03:00 +1°C° 0.1 mm 1 mps 559 mmHg 87%
    04:00 +1°C° 0 mm 1 mps 559 mmHg 84%
    05:00 +1°C° 0 mm 1 mps 559 mmHg 82%
    06:00 -2°C° 0 mm 2 mps 559 mmHg 80%
    07:00 +3°C° 0 mm 1 mps 560 mmHg 71%
    08:00 +5°C° 0 mm 1 mps 562 mmHg 62%
    09:00 +8°C° 0 mm 1 mps 564 mmHg 54%
    10:00 +9°C° 0 mm 1 mps 564 mmHg 51%
    11:00 +9°C° 0 mm 2 mps 564 mmHg 48%
    12:00 +10°C° 0 mm 2 mps 564 mmHg 46%
    13:00 +10°C° 0 mm 2 mps 563 mmHg 47%
    14:00 +10°C° 0 mm 2 mps 562 mmHg 47%
    15:00 +9°C° 0 mm 2 mps 562 mmHg 48%
    16:00 +7°C° 0 mm 2 mps 561 mmHg 59%
    17:00 +4°C° 0 mm 2 mps 560 mmHg 70%
    18:00 +2°C° 0 mm 1 mps 559 mmHg 80%
    19:00 -1°C° 0 mm 2 mps 559 mmHg 77%
    20:00 -1°C° 0 mm 2 mps 559 mmHg 73%
    21:00 -1°C° 0 mm 2 mps 560 mmHg 69%
    22:00 -2°C° 0 mm 2 mps 560 mmHg 68%
    23:00 -2°C° 0 mm 2 mps 560 mmHg 66%

    25 January, Friday

    Time Temperature Precipitation Wind Pressure Humidity
    00:00 -2°C° 0 mm 2 mps 559 mmHg 64%
    01:00 -2°C° 0 mm 2 mps 560 mmHg 62%
    02:00 -1°C° 0 mm 2 mps 560 mmHg 59%
    03:00 -1°C° 0 mm 2 mps 560 mmHg 57%
    04:00 +1°C° 0 mm 2 mps 560 mmHg 55%
    05:00 +2°C° 0 mm 1 mps 560 mmHg 54%
    06:00 +3°C° 0 mm 1 mps 560 mmHg 53%
    07:00 +4°C° 0 mm 1 mps 561 mmHg 49%
    08:00 +6°C° 0 mm 1 mps 562 mmHg 46%
    09:00 +7°C° 0 mm 1 mps 563 mmHg 42%
    10:00 +8°C° 0.1 mm 1 mps 563 mmHg 44%
    11:00 +9°C° 0.1 mm 1 mps 563 mmHg 46%
    12:00 +9°C° 0.1 mm 2 mps 563 mmHg 47%
    13:00 +9°C° 0.3 mm 1 mps 563 mmHg 53%
    14:00 +8°C° 0.3 mm 1 mps 562 mmHg 58%
    15:00 +7°C° 0.3 mm 1 mps 561 mmHg 63%
    16:00 +6°C° 0.3 mm 1 mps 561 mmHg 69%
    17:00 +5°C° 0.3 mm 1 mps 560 mmHg 76%
    18:00 +4°C° 0.3 mm 1 mps 560 mmHg 82%
    19:00 +4°C° 0.3 mm 1 mps 561 mmHg 83%
    20:00 +4°C° 0.3 mm 1 mps 561 mmHg 84%
    21:00 +4°C° 0.3 mm 1 mps 561 mmHg 85%
    22:00 +4°C° 0.5 mm 1 mps 561 mmHg 87%
    23:00 +4°C° 0.5 mm 1 mps 561 mmHg 88%

    26 January, Saturday

    Time Temperature Precipitation Wind Pressure Humidity
    00:00 +3°C° 0.5 mm 1 mps 561 mmHg 89%
    01:00 +3°C° 0.8 mm 1 mps 560 mmHg 90%
    02:00 +3°C° 0.8 mm 1 mps 560 mmHg 90%
    03:00 +3°C° 0.8 mm 1 mps 559 mmHg 90%
    04:00 +3°C° 0.8 mm 1 mps 559 mmHg 91%
    05:00 +3°C° 0.8 mm 1 mps 559 mmHg 91%
    06:00 +3°C° 0.8 mm 1 mps 559 mmHg 91%
    07:00 +3°C° 1.4 mm 1 mps 560 mmHg 91%
    08:00 +4°C° 1.4 mm 1 mps 561 mmHg 91%
    09:00 +4°C° 1.4 mm 1 mps 561 mmHg 90%
    10:00 +4°C° 1.9 mm 1 mps 561 mmHg 91%
    11:00 +5°C° 1.9 mm 1 mps 561 mmHg 92%
    12:00 +5°C° 1.9 mm 1 mps 561 mmHg 92%
    13:00 +5°C° 2 mm 1 mps 561 mmHg 92%
    14:00 +5°C° 2 mm 1 mps 560 mmHg 92%
    15:00 +5°C° 2 mm 1 mps 560 mmHg 93%
    16:00 +5°C° 1.1 mm 1 mps 560 mmHg 92%
    17:00 +5°C° 1.1 mm 1 mps 560 mmHg 92%
    18:00 +4°C° 1.1 mm 1 mps 560 mmHg 92%
    19:00 +4°C° 0.3 mm 1 mps 561 mmHg 92%
    20:00 +4°C° 0.3 mm 1 mps 561 mmHg 92%
    21:00 +4°C° 0.3 mm 1 mps 561 mmHg 92%
    22:00 +4°C° 0.4 mm 1 mps 561 mmHg 92%
    23:00 +3°C° 0.4 mm 1 mps 561 mmHg 91%

    27 January, Sunday

    Time Temperature Precipitation Wind Pressure Humidity
    00:00 +3°C° 0.4 mm 1 mps 561 mmHg 91%
    01:00 +3°C° 0.2 mm 1 mps 560 mmHg 90%
    02:00 +3°C° 0.2 mm 1 mps 560 mmHg 89%
    03:00 +2°C° 0.2 mm 1 mps 560 mmHg 88%
    04:00 +2°C° 0.1 mm 1 mps 560 mmHg 88%
    05:00 +2°C° 0.1 mm 1 mps 560 mmHg 87%
    06:00 +1°C° 0.1 mm 1 mps 559 mmHg 87%
    07:00 +3°C° 0.1 mm 1 mps 561 mmHg 86%
    08:00 +4°C° 0.1 mm 1 mps 562 mmHg 85%
    09:00 +6°C° 0.1 mm 1 mps 563 mmHg 85%
    10:00 +6°C° 0.2 mm 1 mps 563 mmHg 85%
    11:00 +7°C° 0.2 mm 1 mps 563 mmHg 86%
    12:00 +8°C° 0.2 mm 1 mps 563 mmHg 86%
    13:00 +7°C° 0.2 mm 1 mps 562 mmHg 86%
    14:00 +6°C° 0.2 mm 2 mps 562 mmHg 86%
    15:00 +6°C° 0.2 mm 2 mps 561 mmHg 86%
    16:00 +6°C° 0.2 mm 1 mps 561 mmHg 87%
    17:00 +5°C° 0.2 mm 1 mps 560 mmHg 88%
    18:00 +4°C° 0.2 mm 1 mps 560 mmHg 89%
    19:00 +3°C° 0.1 mm 1 mps 560 mmHg 88%
    20:00 +3°C° 0.1 mm 1 mps 560 mmHg 86%
    21:00 +2°C° 0.1 mm 1 mps 560 mmHg 85%
    22:00 +2°C° 0.1 mm 1 mps 560 mmHg 85%
    23:00 +2°C° 0.1 mm 1 mps 560 mmHg 85%
    Show more